This demonstration page uses our WeatherBlox Daily Observations layout. Learn more.

39.51506, -84.39828

Hourly Observations for November 23, 2019

Temp ( °F °C ) Dew Point ( °F °C ) Humidity (%) Winds ( mph kmh ) Pressure ( in mb ) Visibility ( mi km ) Precip ( " mm )
12:15 am 00:15 Clear 26 -3.1 25 -3.8 95 95 Calm 30.12 1020 7 11.26538 0 0
12:35 am 00:35 Clear 26 -3.4 25 -3.9 96 96 Calm 30.12 1020 7 11.26538 0 0
12:55 am 00:55 Clear 26 -3.6 25 -4.1 96 96 Calm 30.12 1020 7 11.26538 0 0
1:15 am 01:15 Clear 26 -3.2 25 -3.7 96 96 Calm 30.1 1019 7 11.26538 0 0
1:35 am 01:35 Clear 27 -3 26 -3.6 96 96 Calm 30.09 1019 7 11.26538 0 0
1:55 am 01:55 Clear 26 -3.2 25 -3.8 96 96 Calm 30.09 1019 7 11.26538 0 0
2:15 am 02:15 Clear with Mist and Fog 26 -3.3 25 -3.7 97 97 Calm 30.09 1019 5 8.0467 0 0
2:35 am 02:35 Clear with Mist and Fog 26 -3.3 25 -3.7 97 97 Calm 30.09 1019 5 8.0467 0 0
2:55 am 02:55 Clear with Mist and Fog 26 -3.5 25 -3.9 97 97 NNE 5 7 30.09 1019 7 11.26538 0 0
3:15 am 03:15 Clear with Mist and Fog 26 -3.5 25 -4 96 96 N 3 6 30.07 1018 5 8.0467 0 0
3:35 am 03:35 Clear with Mist and Fog 26 -3.3 25 -3.8 96 96 Calm 30.06 1018 7 11.26538 0 0
3:55 am 03:55 Clear with Mist and Fog 25 -3.9 24 -4.3 97 97 Calm 30.07 1018 7 11.26538 0 0
4:15 am 04:15 Clear with Mist and Fog 25 -4 24 -4.5 96 96 NNE 3 6 30.06 1018 5 8.0467 0 0
4:35 am 04:35 Clear with Mist and Fog 26 -3.3 25 -3.7 97 97 Calm 30.04 1017 7 11.26538 0 0
4:55 am 04:55 Clear with Mist and Fog 26 -3.3 25 -3.7 97 97 Calm 30.03 1017 7 11.26538 0 0
5:15 am 05:15 Clear with Mist and Fog 26 -3.5 25 -4 96 96 Calm 30.03 1017 7 11.26538 0 0
5:35 am 05:35 Clear 26 -3.5 25 -4 96 96 Calm 30.02 1017 7 11.26538 0 0
5:55 am 05:55 Clear 26 -3.5 25 -4 96 96 Calm 30.01 1016 7 11.26538 0 0
6:15 am 06:15 Clear 26 -3.3 25 -3.9 96 96 N 5 7 29.99 1016 7 11.26538 0 0
6:35 am 06:35 Clear 27 -3 25 -3.7 95 95 Calm 29.98 1015 10 16.0934 0 0
6:55 am 06:55 Clear 27 -2.6 26 -3.1 96 96 N 5 7 29.96 1015 10 16.0934 0 0
7:15 am 07:15 Mostly Cloudy 29 -1.8 27 -2.6 94 94 Calm 29.95 1014 10 16.0934 0 0
7:35 am 07:35 Partly Cloudy 29 -1.9 27 -2.7 94 94 NE 5 7 29.94 1014 10 16.0934 0 0
7:55 am 07:55 Sunny 29 -1.6 28 -2.2 96 96 ENE 6 9 29.92 1013 7 11.26538 0 0
8:15 am 08:15 Sunny 31 -0.8 29 -1.5 95 95 Calm 29.92 1013 7 11.26538 0 0
8:35 am 08:35 Sunny 31 -0.4 29 -1.4 93 93 N 6 9 29.91 1013 10 16.0934 0 0
8:55 am 08:55 Partly Cloudy 32 0.2 30 -1.1 91 91 N 3 6 29.9 1013 10 16.0934 0 0
9:15 am 09:15 Partly Cloudy 35 1.4 31 -0.4 88 88 NNE 7 11 29.89 1012 10 16.0934 0 0
9:35 am 09:35 Sunny 36 2.3 32 -0.1 84 84 NE 7 11 29.88 1012 10 16.0934 0 0
9:55 am 09:55 Mostly Cloudy 36 2.2 31 -0.4 83 83 NE 3 6 29.88 1012 10 16.0934 0 0
10:15 am 10:15 Mostly Cloudy 37 2.8 32 0.2 83 83 NE 3 6 29.88 1012 10 16.0934 0 0
10:35 am 10:35 Mostly Cloudy 37 3 33 0.3 83 83 NNE 7 11 29.87 1011 10 16.0934 0 0
10:55 am 10:55 Cloudy 38 3.3 33 0.5 82 82 NE 8 13 29.85 1011 10 16.0934 0 0
11:15 am 11:15 Mostly Cloudy 38 3.5 33 0.6 82 82 ENE 7 11 29.84 1010 10 16.0934 0 0
11:35 am 11:35 Cloudy with Light Rain 38 3.4 33 0.7 83 83 NE 8 13 29.81 1009 10 16.0934 0 0
11:55 am 11:55 Cloudy with Light Rain 39 3.8 34 1.1 83 83 NNE 5 7 29.79 1009 10 16.0934 0 0
12:15 pm 12:15 Cloudy with Light Rain 39 4 35 1.6 85 85 NNE 8 13 29.77 1008 10 16.0934 0 0
12:35 pm 12:35 Cloudy 39 4 35 1.5 84 84 NE 7 11 29.75 1008 10 16.0934 0 0
12:55 pm 12:55 Cloudy with Light Rain 40 4.3 36 2.3 87 87 NNE 6 9 29.71 1006 5 8.0467 0 0
1:15 pm 13:15 Cloudy with Light Rain 39 4.1 36 2.4 89 89 N 7 11 29.72 1007 7 11.26538 0 0
1:35 pm 13:35 Cloudy 40 4.2 36 2.4 88 88 NNE 8 13 29.7 1006 10 16.0934 0 0
1:55 pm 13:55 Cloudy 40 4.3 36 2.4 88 88 NNE 10 17 29.67 1005 10 16.0934 0 0
2:15 pm 14:15 Cloudy with Light Drizzle 40 4.4 37 2.7 89 89 NE 12 19 29.63 1003 7 11.26538 0 0
2:35 pm 14:35 Cloudy with Light Drizzle 40 4.4 37 2.9 90 90 NNE 9 15 29.63 1003 5 8.0467 0 0
2:55 pm 14:55 Cloudy 40 4.4 37 2.8 89 89 NNE 9 15 29.62 1003 10 16.0934 0 0
3:15 pm 15:15 Cloudy with Heavy Rain 39 4.1 37 2.8 91 91 WNW 9 15 29.67 1005 1.5 2.41401 0 0
3:35 pm 15:35 Cloudy with Rain 38 3.5 37 2.8 95 95 NW 9 15 29.7 1006 1.25 2.011675 0.01 0.254
4:15 pm 16:15 Cloudy with Light Rain 38 3.5 37 2.8 95 95 NNW 12 19 29.7 1006 3.5 5.63269 0.01 0.254
4:35 pm 16:35 Cloudy with Light Drizzle 38 3.4 37 2.5 94 94 N 14 22 29.7 1006 5 8.0467 0.01 0.254
4:55 pm 16:55 Cloudy with Light Rain 38 3.2 36 2.1 93 93 N 10 17 29.7 1006 4 6.43736 0.01 0.254
5:15 pm 17:15 Cloudy with Light Rain 38 3.1 36 2 93 93 N 13 20 29.66 1004 5 8.0467 0 0
5:35 pm 17:35 Cloudy with Light Rain 38 3.1 35 1.8 91 91 NNE 12 19 29.67 1005 10 16.0934 0 0
5:55 pm 17:55 Cloudy 38 3.1 35 1.5 89 89 NNE 9 15 29.68 1005 10 16.0934 0 0
6:15 pm 18:15 Mostly Cloudy 37 3 35 1.5 90 90 NE 12 19 29.66 1004 10 16.0934 0 0
6:35 pm 18:35 Cloudy 38 3.1 35 1.7 91 91 W 14 22 29.74 1007 10 16.0934 0 0
6:55 pm 18:55 Cloudy with Light Rain 38 3.1 35 1.6 90 90 WNW 12 19 29.75 1007 10 16.0934 0 0
7:15 pm 19:15 Cloudy with Light Drizzle 37 2.9 35 1.5 91 91 WNW 8 13 29.75 1007 10 16.0934 0 0
7:35 pm 19:35 Cloudy 37 2.7 35 1.4 91 91 NW 9 15 29.75 1007 10 16.0934 0 0
7:55 pm 19:55 Cloudy with Light Rain 37 2.5 34 1.1 91 91 NW 9 15 29.76 1008 5 8.0467 0 0
8:15 pm 20:15 Cloudy with Light Rain 36 2.4 34 1.3 93 93 NW 9 15 29.77 1008 7 11.26538 0 0
8:35 pm 20:35 Cloudy with Light Rain 36 2 34 0.9 93 93 NW 8 13 29.77 1008 10 16.0934 0 0
8:55 pm 20:55 Cloudy with Light Rain 35 1.9 33 0.8 93 93 WNW 9 15 29.78 1008 10 16.0934 0 0
9:15 pm 21:15 Cloudy 35 1.8 34 0.9 94 94 WNW 7 11 29.78 1008 10 16.0934 0 0
9:35 pm 21:35 Cloudy 35 1.7 33 0.8 94 94 WNW 3 6 29.77 1008 10 16.0934 0 0
9:55 pm 21:55 Cloudy 35 1.6 33 0.8 94 94 W 5 7 29.78 1008 10 16.0934 0 0
10:15 pm 22:15 Cloudy 35 1.7 34 0.9 94 94 W 7 11 29.79 1009 10 16.0934 0 0
10:35 pm 22:35 Cloudy with Light Rain 35 1.6 33 0.7 94 94 W 9 15 29.8 1009 5 8.0467 0 0
10:55 pm 22:55 Cloudy with Light Snow 34 1.2 33 0.4 94 94 W 9 15 29.81 1010 5 8.0467 0 0
11:15 pm 23:15 Cloudy with Light Snow 33 0.7 32 0.1 96 96 W 8 13 29.81 1010 3 4.82802 0 0
11:35 pm 23:35 Cloudy with Light Snow 33 0.5 32 0 96 96 W 8 13 29.81 1010 2 3.21868 0 0
11:55 pm 23:55 Cloudy with Light Snow 33 0.5 32 0.1 97 97 W 8 13 29.82 1010 3 4.82802 0 0

Powered by AerisWeather